AD7CQ Weather Reports


time (UTC)temp
C
wind
direction
speed
KPH
gust
KPH
rain 1hr
cm
rain 24hr
cm
rain mn
cm
humidity
%
barometer
mb
20260507073052 16 301 0.0 3.2 0.00 0.00 0.00 62 1010.9
20260507071538 16 301 0.0 4.8 0.00 0.00 0.00 61 1010.8
20260507070039 16 301 0.0 3.2 0.00 0.00 0.00 61 1010.3
20260507064542 17 301 0.0 4.8 0.00 0.00 0.00 59 1010.3
20260507063040 17 301 0.0 3.2 0.00 0.00 0.00 58 1010.1
20260507061537 17 303 0.0 0.0 0.00 0.00 0.00 57 1010.0
20260507060036 18 303 0.0 0.0 0.00 0.00 0.00 55 1009.9
20260507054531 18 303 0.0 0.0 0.00 0.00 0.00 50 1010.3
20260507053035 19 303 0.0 0.0 0.00 0.00 0.00 44 1010.0
20260507051530 20 303 0.0 0.0 0.00 0.00 0.00 42 1010.1
20260507050032 20 303 0.0 0.0 0.00 0.00 0.00 39 1010.0
20260507044527 20 303 0.0 0.0 0.00 0.00 0.00 41 1009.8
20260507043030 20 304 0.0 0.0 0.00 0.00 0.00 40 1009.8
20260507041528 21 303 0.0 6.4 0.00 0.00 0.00 40 1009.5
20260507040024 21 285 1.6 6.4 0.00 0.00 0.00 39 1009.2
20260507034532 21 299 0.0 3.2 0.00 0.00 0.00 38 1009.2
20260507033024 22 297 0.0 9.7 0.00 0.00 0.00 37 1008.9
20260507031522 22 260 1.6 12.9 0.00 0.00 0.00 36 1008.6
20260507030024 22 301 1.6 8.0 0.00 0.00 0.00 36 1008.3
20260507024522 23 259 1.6 12.9 0.00 0.00 0.00 35 1008.1
20260507023022 23 278 1.6 8.0 0.00 0.00 0.00 35 1008.2
20260507021521 24 301 1.6 8.0 0.00 0.00 0.00 34 1008.0
20260507020021 25 295 1.6 6.4 0.00 0.00 0.00 33 1007.9
20260507014524 25 293 1.6 8.0 0.00 0.00 0.00 33 1007.8
20260507013020 26 307 1.6 6.4 0.00 0.00 0.00 31 1007.8
20260507011520 26 251 1.6 14.5 0.00 0.00 0.00 31 1007.8
20260507010029 26 254 1.6 8.0 0.00 0.00 0.00 33 1007.6
20260507004517 26 164 4.8 17.7 0.00 0.00 0.00 40 1007.1
20260507003017 27 126 0.0 16.1 0.00 0.00 0.00 38 1007.0
20260507001517 27 170 1.6 11.3 0.00 0.00 0.00 37 1006.9
20260507000016 28 185 3.2 11.3 0.00 0.00 0.00 36 1006.8
20260506234534 28 143 1.6 11.3 0.00 0.00 0.00 37 1006.9
20260506233015 28 146 3.2 22.5 0.00 0.00 0.00 36 1007.0
20260506231513 29 147 4.8 25.7 0.00 0.00 0.00 35 1007.1
20260506230010 28 165 1.6 14.5 0.00 0.00 0.00 34 1007.3
20260506224522 28 216 3.2 16.1 0.00 0.00 0.00 33 1007.6
20260506223008 28 212 1.6 12.9 0.00 0.00 0.00 31 1007.8
20260506221507 29 126 3.2 17.7 0.00 0.00 0.00 29 1007.9
20260506220017 29 175 3.2 16.1 0.00 0.00 0.00 28 1008.0
20260506214504 29 111 1.6 14.5 0.00 0.00 0.00 31 1008.2
20260506213002 28 163 3.2 19.3 0.00 0.00 0.00 31 1008.4
20260506211559 28 147 1.6 20.9 0.00 0.00 0.00 32 1008.4
20260506210057 28 214 1.6 14.5 0.00 0.00 0.00 31 1008.6
20260506204555 28 191 3.2 12.9 0.00 0.00 0.00 32 1008.8
20260506203059 28 171 4.8 17.7 0.00 0.00 0.00 32 1008.7
20260506201552 28 359 3.2 16.1 0.00 0.00 0.00 33 1009.0
20260506200047 27 181 3.2 16.1 0.00 0.00 0.00 34 1009.1
20260506194546 27 170 3.2 16.1 0.00 0.00 0.00 35 1009.3
20260506193049 26 196 1.6 9.7 0.00 0.00 0.00 37 1009.3
20260506191539 26 207 3.2 14.5 0.00 0.00 0.00 37 1009.4
20260506190038 26 129 1.6 11.3 0.00 0.00 0.00 38 1009.4
20260506184537 26 195 3.2 11.3 0.00 0.00 0.00 38 1009.6
20260506183038 26 189 1.6 14.5 0.00 0.00 0.00 40 1009.7
20260506181531 25 211 1.6 11.3 0.00 0.00 0.00 40 1009.9
20260506180026 25 221 3.2 12.9 0.00 0.00 0.00 41 1009.9
20260506174522 23 224 1.6 12.9 0.00 0.00 0.00 43 1009.9
20260506173022 23 191 3.2 14.5 0.00 0.00 0.00 45 1010.1
20260506171520 23 197 1.6 14.5 0.00 0.00 0.00 46 1010.2
20260506170011 22 206 1.6 16.1 0.00 0.00 0.00 47 1010.5
20260506164512 22 147 1.6 6.4 0.00 0.00 0.00 48 1010.5
20260506163003 22 208 0.0 6.4 0.00 0.00 0.00 50 1010.6
20260506161600 22 187 1.6 8.0 0.00 0.00 0.00 50 1010.6
20260506160108 21 143 0.0 6.4 0.00 0.00 0.00 53 1010.5
20260506154550 21 115 3.2 12.9 0.00 0.00 0.00 55 1010.5
20260506153045 20 137 1.6 8.0 0.00 0.00 0.00 57 1010.3
20260506151544 20 129 1.6 11.3 0.00 0.00 0.00 58 1010.4
20260506150037 19 100 1.6 6.4 0.00 0.00 0.00 59 1010.4
20260506144532 18 80 0.0 0.0 0.00 0.00 0.00 60 1010.3
20260506143033 18 81 0.0 0.0 0.00 0.00 0.00 62 1010.3
20260506141523 17 80 0.0 0.0 0.00 0.00 0.00 64 1010.2
20260506140019 17 81 0.0 4.8 0.00 0.00 0.00 67 1010.1
20260506134520 16 80 0.0 0.0 0.00 0.00 0.00 73 1010.0
20260506133011 14 81 0.0 0.0 0.00 0.00 0.00 79 1009.8
20260506131513 13 81 0.0 0.0 0.00 0.00 0.00 80 1009.6
20260506130004 13 81 0.0 0.0 0.00 0.00 0.00 80 1009.4
20260506124500 13 81 0.0 0.0 0.00 0.00 0.00 79 1009.3
20260506123058 13 81 0.0 0.0 0.00 0.00 0.00 77 1009.3
20260506121556 14 80 0.0 0.0 0.00 0.00 0.00 75 1009.0
20260506120054 15 80 0.0 0.0 0.00 0.00 0.00 74 1008.9
20260506114550 15 80 0.0 0.0 0.00 0.00 0.00 73 1008.7
20260506113048 15 80 0.0 1.6 0.00 0.00 0.00 74 1008.6
20260506111546 14 81 1.6 4.8 0.00 0.00 0.00 77 1008.5
20260506110044 13 81 0.0 0.0 0.00 0.00 0.00 76 1008.5
20260506104548 14 81 0.0 0.0 0.00 0.00 0.00 74 1008.3
20260506103040 14 81 0.0 0.0 0.00 0.00 0.00 73 1008.2
20260506101537 15 80 0.0 0.0 0.00 0.00 0.00 72 1008.3
20260506100037 15 80 0.0 1.6 0.00 0.00 0.00 71 1008.1
20260506094545 15 80 0.0 0.0 0.00 0.00 0.00 70 1008.1
20260506093035 15 80 0.0 0.0 0.00 0.00 0.00 69 1008.1
20260506091531 16 80 0.0 0.0 0.00 0.00 0.00 67 1008.0
20260506090025 16 81 0.0 0.0 0.00 0.00 0.00 66 1008.0
20260506084523 17 80 0.0 0.0 0.00 0.00 0.00 64 1007.9
20260506083020 17 80 0.0 3.2 0.00 0.00 0.00 63 1007.7
20260506081518 17 80 0.0 3.2 0.00 0.00 0.00 64 1007.6